User: anonymous   Login
Location: Caltech
(34.1382°N, 118.1253°W)
Time: 20:02:12
(UTC-07:00)
Language:

AO-Echo - Orbit

View from above orbital plane
View from above orbital plane
View from above satellite
View from above satellite

Ground track
Ground track

The orbit data is extracted from the following two-line orbital elements,

1 28375U 04025K   18174.48794733 -.00000006 +00000-0 +11926-4 0  9992
2 28375 098.3853 105.8069 0081348 243.8391 115.4415 14.41890178735263
Epoch (UTC): 23 June 2018 11:42:38
Eccentricity: 0.0081348
inclination: 98.3853°
perigee height: 694 km
apogee height: 810 km
right ascension of ascending node: 105.8069°
argument of perigee: 243.8391°
revolutions per day: 14.41890178
mean anomaly at epoch: 115.4415°
orbit number at epoch: 73526

The dashed part of the orbit path shows where the satellite is in the earth's shadow,  

DLR